[[{"header":{"parameterUnit":"m.s-1","parameterCategory":1,"la1":30.2992,"la2":30.254,"lo1":-89.0895,"lo2":-89.0443,"dy":0.0025,"dx":0.0025,"nx":19,"ny":19,"refTime":"2026-05-01T09:00:00:Z","depth":0,"parameterNumber":2,"parameterNumberName":"U-component_of_WINDS"},"data":[0,0,0,-0.0878,-0.0881,-0.104,-0.104,-0.1248,-0.1249,0,0,0,0,0,0,0,0,0,0,0,-0.083,-0.0832,-0.0877,-0.0881,-0.104,-0.104,-0.1247,-0.1249,0,0,0,0,0,0,0,0,0,0,0,-0.083,-0.0831,-0.0833,-0.0882,-0.1039,-0.104,-0.1247,-0.1126,0,0,0,0,0,0,0,0,0,0,-0.0972,-0.0927,-0.0831,-0.0833,-0.0883,-0.1039,-0.104,-0.112,-0.1134,-0.1177,0,-0.1212,0,-0.1234,-0.1263,-0.1264,0,0,0,-0.0882,-0.0916,-0.0959,-0.0833,-0.0884,-0.1039,-0.0968,-0.1128,-0.1143,-0.1194,-0.1215,-0.1222,-0.1237,-0.1265,-0.1266,-0.1502,-0.1503,0,0,-0.0874,-0.086,-0.0948,-0.0968,-0.0941,-0.0963,-0.0973,-0.1137,-0.116,-0.1216,-0.1227,-0.124,-0.1266,-0.1268,-0.1501,-0.1502,0,0,0,-0.0848,-0.0854,-0.0892,-0.096,-0.0988,-0.0968,-0.0979,-0.1153,-0.1166,-0.123,-0.1243,-0.1267,-0.127,-0.15,-0.1502,-0.1541,0,0,0,-0.0843,-0.0838,-0.0888,-0.0881,-0.0985,-0.1072,-0.0991,-0.1155,-0.1174,-0.1242,-0.1267,-0.1272,-0.1499,-0.1501,-0.1537,-0.1564,0,0,0,-0.082,-0.0836,-0.0858,-0.088,-0.0947,-0.1069,-0.1092,-0.1159,-0.1182,-0.1264,-0.1272,-0.1498,-0.1501,-0.1534,-0.1558,-0.1624,0,0,0,-0.0793,-0.0892,-0.0859,-0.0973,-0.0946,-0.109,-0.1091,-0.12,-0.1275,-0.1268,-0.1499,-0.1502,-0.1533,-0.1555,-0.162,-0.1678,-0.17,0,0,-0.091,-0.0905,-0.0974,-0.0949,-0.1095,-0.1067,-0.1221,-0.1304,-0.1326,-0.1443,-0.1449,-0.1539,-0.1558,-0.1623,-0.1821,-0.1838,0,0,0,-0.1006,-0.1056,-0.1098,-0.1167,-0.123,-0.1289,-0.1349,-0.138,-0.1479,-0.1382,-0.1578,-0.159,-0.1629,-0.1658,-0.1673,-0.1708,-0.1513,-0.1513,-0.1512,-0.1155,-0.1174,-0.129,-0.1329,-0.1396,-0.1456,-0.1514,-0.1567,-0.1568,-0.1614,-0.1651,-0.1768,-0.1801,-0.1812,-0.1849,-0.168,-0.168,-0.168,-0.168,-0.133,-0.1405,-0.1402,-0.1514,-0.1535,-0.163,-0.1692,-0.169,-0.1784,-0.1742,-0.1778,-0.1734,-0.183,-0.1864,-0.1683,-0.1683,-0.1682,-0.1682,-0.1682,-0.1433,-0.1472,-0.1505,-0.1607,-0.1684,-0.172,-0.1809,-0.1825,-0.1841,-0.1876,-0.1918,-0.1917,-0.1922,-0.1893,-0.1894,-0.1894,-0.1895,-0.1895,-0.1895,-0.1528,-0.1563,-0.1636,-0.171,-0.1756,-0.182,-0.188,-0.1928,-0.1985,-0.199,-0.199,-0.199,-0.1834,-0.1796,-0.1902,-0.1901,-0.19,-0.1899,-0.1899,-0.1705,-0.1667,-0.1779,-0.1825,-0.1914,-0.1991,-0.2007,-0.2103,-0.2144,-0.2188,-0.2179,-0.2059,-0.2057,-0.2046,-0.2015,-0.2171,-0.2171,-0.2171,-0.2171,-0.1795,-0.1793,-0.1911,-0.1985,-0.2058,-0.2084,-0.2213,-0.2261,-0.2305,-0.2332,-0.2311,-0.227,-0.2258,-0.2263,-0.2247,-0.222,-0.2424,-0.2424,-0.2424,-0.1907,-0.1913,-0.2019,-0.2058,-0.2128,-0.2189,-0.2312,-0.2399,-0.244,-0.2435,-0.2355,-0.2344,-0.2279,-0.2256,-0.2254,-0.2228,-0.2177,0,0]},{"header":{"parameterUnit":"m.s-1","parameterCategory":1,"la1":30.2992,"la2":30.254,"lo1":-89.0895,"lo2":-89.0443,"dy":0.0025,"dx":0.0025,"nx":19,"ny":19,"refTime":"2026-05-01T09:00:00:Z","depth":0,"parameterNumber":3,"parameterNumberName":"V-component_of_WINDS"},"data":[0,0,0,-6.4452,-6.4458,-6.4743,-6.4743,-6.513,-6.5133,0,0,0,0,0,0,0,0,0,0,0,-6.4384,-6.4387,-6.4451,-6.4459,-6.4742,-6.4744,-6.5129,-6.5133,0,0,0,0,0,0,0,0,0,0,0,-6.4383,-6.4386,-6.4391,-6.446,-6.4742,-6.4744,-6.5128,-6.4905,0,0,0,0,0,0,0,0,0,0,-6.4625,-6.4579,-6.4386,-6.4391,-6.4462,-6.4742,-6.4744,-6.4894,-6.4919,-6.5012,0,-6.51,0,-6.5123,-6.5161,-6.5162,0,0,0,-6.4446,-6.4559,-6.462,-6.4391,-6.4465,-6.4742,-6.4611,-6.4908,-6.4936,-6.5045,-6.5106,-6.5119,-6.513,-6.5163,-6.5166,-6.5748,-6.5751,0,0,-6.4431,-6.4444,-6.4601,-6.464,-6.46,-6.4602,-6.462,-6.4924,-6.499,-6.5107,-6.5128,-6.5136,-6.5166,-6.5169,-6.5745,-6.5749,0,0,0,-6.4394,-6.4433,-6.4487,-6.4625,-6.4674,-6.461,-6.4631,-6.4977,-6.4993,-6.5132,-6.5141,-6.5169,-6.5174,-6.5741,-6.5746,-6.5926,0,0,0,-6.4384,-6.4412,-6.4481,-6.4492,-6.4669,-6.483,-6.4677,-6.4972,-6.5006,-6.5139,-6.5169,-6.5178,-6.5738,-6.5744,-6.5913,-6.6009,0,0,0,-6.436,-6.4409,-6.4456,-6.4492,-6.4615,-6.4824,-6.4858,-6.4979,-6.5013,-6.5163,-6.5179,-6.5735,-6.5743,-6.5902,-6.599,-6.6168,0,0,0,-6.4337,-6.4609,-6.4459,-6.4765,-6.4612,-6.4933,-6.4856,-6.5094,-6.5243,-6.5171,-6.5738,-6.5746,-6.5898,-6.5979,-6.6156,-6.6322,-6.6392,0,0,-6.4688,-6.4652,-6.4831,-6.4705,-6.5057,-6.4889,-6.5266,-6.5389,-6.539,-6.5628,-6.5642,-6.5917,-6.5989,-6.6166,-6.6775,-6.6831,0,0,0,-6.4947,-6.5076,-6.5166,-6.5311,-6.5413,-6.5508,-6.5573,-6.5618,-6.582,-6.5516,-6.6028,-6.607,-6.6173,-6.6252,-6.6299,-6.6388,-6.5782,-6.5781,-6.5781,-6.5462,-6.545,-6.5746,-6.5769,-6.591,-6.5974,-6.6087,-6.6159,-6.6103,-6.6224,-6.6296,-6.6668,-6.6761,-6.6796,-6.6888,-6.638,-6.6381,-6.6382,-6.6382,-6.5976,-6.6158,-6.608,-6.6339,-6.6324,-6.6541,-6.6612,-6.6566,-6.6765,-6.6612,-6.6702,-6.6539,-6.6858,-6.6938,-6.6396,-6.6393,-6.6392,-6.639,-6.6389,-6.6315,-6.64,-6.6452,-6.666,-6.6821,-6.6832,-6.7028,-6.7006,-6.6986,-6.7075,-6.7149,-6.7146,-6.7142,-6.7111,-6.7113,-6.7114,-6.7115,-6.7116,-6.7117,-6.6647,-6.67,-6.6869,-6.7,-6.709,-6.7206,-6.7272,-6.7359,-6.745,-6.7418,-6.7419,-6.7353,-6.689,-6.6776,-6.7137,-6.7133,-6.7131,-6.7129,-6.7127,-6.7178,-6.7054,-6.7316,-6.7407,-6.7559,-6.7721,-6.7689,-6.7869,-6.7937,-6.8035,-6.7949,-6.761,-6.7571,-6.7533,-6.7439,-6.7949,-6.7949,-6.7949,-6.7949,-6.7466,-6.7444,-6.7707,-6.7853,-6.7993,-6.7992,-6.8286,-6.834,-6.8375,-6.8416,-6.8338,-6.821,-6.8172,-6.8156,-6.8105,-6.8016,-6.8662,-6.8663,-6.8664,-6.7793,-6.7783,-6.804,-6.8075,-6.8192,-6.8293,-6.8569,-6.8739,-6.8752,-6.8692,-6.8449,-6.8419,-6.8211,-6.8144,-6.8081,-6.8002,-6.7839,0,0]}]]